TimeCST,TemperatureF,Dew PointF,Humidity,Sea Level PressureIn,VisibilityMPH,Wind Direction,Wind SpeedMPH,Gust SpeedMPH,PrecipitationIn,Events,Conditions,WindDirDegrees,DateUTC
12:15 AM,35.6,33.8,93,30.16,10.0,Calm,Calm,-,N/A,,Clear,0,2013-11-20 06:15:00
12:35 AM,33.8,33.8,100,30.15,10.0,Calm,Calm,-,N/A,,Clear,0,2013-11-20 06:35:00
12:55 AM,35.6,33.8,93,30.14,10.0,East,3.5,-,N/A,,Clear,80,2013-11-20 06:55:00
1:15 AM,35.6,33.8,93,30.15,10.0,Calm,Calm,-,N/A,,Clear,0,2013-11-20 07:15:00
1:35 AM,35.6,33.8,93,30.16,10.0,Calm,Calm,-,N/A,,Clear,0,2013-11-20 07:35:00
1:55 AM,33.8,33.8,100,30.16,10.0,Calm,Calm,-,N/A,,Clear,0,2013-11-20 07:55:00
2:15 AM,30.2,30.2,100,30.17,10.0,Calm,Calm,-,N/A,,Clear,0,2013-11-20 08:15:00
2:35 AM,32.0,32.0,100,30.16,10.0,Calm,Calm,-,N/A,,Clear,0,2013-11-20 08:35:00
2:55 AM,32.0,32.0,100,30.17,10.0,Calm,Calm,-,N/A,,Clear,0,2013-11-20 08:55:00
3:15 AM,32.0,32.0,100,30.17,10.0,Calm,Calm,-,N/A,,Clear,0,2013-11-20 09:15:00
3:35 AM,30.2,30.2,100,30.17,10.0,Calm,Calm,-,N/A,,Clear,0,2013-11-20 09:35:00
3:55 AM,30.2,30.2,100,30.17,10.0,Calm,Calm,-,N/A,,Clear,0,2013-11-20 09:55:00
4:15 AM,28.4,28.4,100,30.17,10.0,Calm,Calm,-,N/A,,Clear,0,2013-11-20 10:15:00
4:35 AM,30.2,30.2,100,30.18,10.0,Calm,Calm,-,N/A,,Clear,0,2013-11-20 10:35:00
4:55 AM,-9999,-9999,N/A,30.18,10.0,Calm,Calm,-,N/A,,Clear,0,2013-11-20 10:55:00
5:15 AM,-9999,-9999,N/A,30.18,10.0,Calm,Calm,-,N/A,,Clear,0,2013-11-20 11:15:00
5:35 AM,-9999,-9999,N/A,30.19,10.0,Calm,Calm,-,N/A,,Clear,0,2013-11-20 11:35:00
5:55 AM,-9999,-9999,N/A,30.20,10.0,Calm,Calm,-,N/A,,Clear,0,2013-11-20 11:55:00
6:15 AM,-9999,-9999,N/A,30.21,10.0,Calm,Calm,-,N/A,,Clear,0,2013-11-20 12:15:00
6:35 AM,-9999,-9999,N/A,30.21,10.0,Calm,Calm,-,N/A,,Clear,0,2013-11-20 12:35:00
6:55 AM,-9999,-9999,N/A,30.21,7.0,Calm,Calm,-,N/A,,Clear,0,2013-11-20 12:55:00
7:15 AM,-9999,-9999,N/A,30.21,10.0,Calm,Calm,-,N/A,,Clear,0,2013-11-20 13:15:00
7:35 AM,33.8,33.8,100,30.22,10.0,Calm,Calm,-,N/A,,Clear,0,2013-11-20 13:35:00
7:55 AM,35.6,35.6,100,30.21,9.0,Calm,Calm,-,N/A,,Clear,0,2013-11-20 13:55:00
8:15 AM,37.4,37.4,100,30.21,10.0,Calm,Calm,-,N/A,,Clear,0,2013-11-20 14:15:00
8:35 AM,41.0,41.0,100,30.21,10.0,Calm,Calm,-,N/A,,Clear,0,2013-11-20 14:35:00
8:55 AM,48.2,33.8,58,30.21,10.0,SSE,11.5,-,N/A,,Clear,150,2013-11-20 14:55:00
9:15 AM,51.8,33.8,50,30.21,10.0,SSE,9.2,-,N/A,,Clear,160,2013-11-20 15:15:00
9:35 AM,53.6,33.8,47,30.21,10.0,SSE,10.4,-,N/A,,Clear,160,2013-11-20 15:35:00
9:55 AM,53.6,33.8,47,30.22,10.0,SSE,10.4,-,N/A,,Clear,150,2013-11-20 15:55:00
10:15 AM,55.4,32.0,41,30.22,10.0,SSE,9.2,-,N/A,,Clear,150,2013-11-20 16:15:00
10:35 AM,57.2,33.8,41,30.21,10.0,SE,8.1,-,N/A,,Clear,140,2013-11-20 16:35:00
10:55 AM,59.0,33.8,39,30.20,10.0,South,5.8,-,N/A,,Clear,170,2013-11-20 16:55:00
11:15 AM,59.0,33.8,39,30.19,10.0,South,10.4,-,N/A,,Clear,180,2013-11-20 17:15:00
11:35 AM,60.8,32.0,34,30.18,10.0,South,13.8,-,N/A,,Clear,170,2013-11-20 17:35:00
11:55 AM,60.8,32.0,34,30.17,10.0,South,9.2,-,N/A,,Clear,190,2013-11-20 17:55:00
12:15 PM,60.8,32.0,34,30.17,10.0,South,9.2,-,N/A,,Clear,170,2013-11-20 18:15:00
12:35 PM,60.8,32.0,34,30.17,10.0,South,9.2,-,N/A,,Clear,180,2013-11-20 18:35:00
12:55 PM,60.8,32.0,34,30.16,10.0,South,10.4,-,N/A,,Clear,190,2013-11-20 18:55:00
1:15 PM,60.8,32.0,34,30.15,10.0,South,9.2,-,N/A,,Clear,170,2013-11-20 19:15:00
1:35 PM,60.8,33.8,36,30.14,10.0,SSE,9.2,-,N/A,,Clear,160,2013-11-20 19:35:00
1:55 PM,60.8,32.0,34,30.13,10.0,South,6.9,-,N/A,,Clear,180,2013-11-20 19:55:00
2:15 PM,62.6,32.0,32,30.13,10.0,South,8.1,-,N/A,,Clear,180,2013-11-20 20:15:00
2:35 PM,62.6,32.0,32,30.14,10.0,South,8.1,-,N/A,,Clear,180,2013-11-20 20:35:00
2:55 PM,60.8,32.0,34,30.13,10.0,SE,8.1,-,N/A,,Clear,140,2013-11-20 20:55:00
3:15 PM,60.8,30.2,31,30.14,10.0,South,8.1,-,N/A,,Clear,170,2013-11-20 21:15:00
3:35 PM,60.8,32.0,34,30.14,10.0,SE,5.8,-,N/A,,Clear,140,2013-11-20 21:35:00
3:55 PM,60.8,30.2,31,30.14,10.0,SSE,8.1,-,N/A,,Clear,150,2013-11-20 21:55:00
4:15 PM,59.0,32.0,36,30.14,10.0,ESE,4.6,-,N/A,,Clear,120,2013-11-20 22:15:00
4:35 PM,57.2,32.0,38,30.13,10.0,SE,5.8,-,N/A,,Clear,130,2013-11-20 22:35:00
4:55 PM,55.4,30.2,38,30.14,10.0,ESE,4.6,-,N/A,,Clear,120,2013-11-20 22:55:00
5:15 PM,53.6,32.0,44,30.14,10.0,ESE,3.5,-,N/A,,Clear,120,2013-11-20 23:15:00
5:35 PM,53.6,32.0,44,30.14,10.0,SE,3.5,-,N/A,,Clear,140,2013-11-20 23:35:00
5:55 PM,53.6,32.0,44,30.15,10.0,SE,3.5,-,N/A,,Clear,130,2013-11-20 23:55:00
6:15 PM,53.6,33.8,47,30.15,10.0,SSE,3.5,-,N/A,,Clear,150,2013-11-21 00:15:00
6:35 PM,51.8,33.8,50,30.16,10.0,SE,3.5,-,N/A,,Clear,140,2013-11-21 00:35:00
6:55 PM,51.8,33.8,50,30.16,10.0,Calm,Calm,-,N/A,,Clear,0,2013-11-21 00:55:00
7:15 PM,50.0,35.6,58,30.16,10.0,Calm,Calm,-,N/A,,Clear,0,2013-11-21 01:15:00
7:35 PM,48.2,35.6,62,30.17,10.0,Calm,Calm,-,N/A,,Clear,0,2013-11-21 01:35:00
7:55 PM,48.2,35.6,62,30.17,10.0,Calm,Calm,-,N/A,,Clear,0,2013-11-21 01:55:00
8:15 PM,50.0,35.6,58,30.17,10.0,SSE,4.6,-,N/A,,Clear,150,2013-11-21 02:15:00
8:35 PM,50.0,37.4,62,30.17,10.0,SE,4.6,-,N/A,,Unknown,140,2013-11-21 02:35:00
8:55 PM,50.0,37.4,62,30.18,10.0,South,4.6,-,N/A,,Clear,170,2013-11-21 02:55:00
9:15 PM,48.2,37.4,66,30.19,10.0,South,3.5,-,N/A,,Clear,170,2013-11-21 03:15:00
9:35 PM,50.0,37.4,62,30.19,10.0,South,3.5,-,N/A,,Clear,170,2013-11-21 03:35:00
9:55 PM,50.0,37.4,62,30.19,10.0,SSE,9.2,-,N/A,,Clear,150,2013-11-21 03:55:00
10:15 PM,48.2,37.4,66,30.20,10.0,SSE,4.6,-,N/A,,Clear,150,2013-11-21 04:15:00
10:35 PM,48.2,37.4,66,30.20,10.0,SSE,6.9,-,N/A,,Clear,160,2013-11-21 04:35:00
10:55 PM,48.2,37.4,66,30.19,10.0,SSE,5.8,-,N/A,,Clear,160,2013-11-21 04:55:00
11:35 PM,48.2,37.4,66,30.20,10.0,SSE,3.5,-,N/A,,Unknown,160,2013-11-21 05:35:00
11:55 PM,48.2,39.2,71,30.20,10.0,SSE,4.6,-,N/A,,Clear,160,2013-11-21 05:55:00